Weather History for Westhampton Beach, NY

Change the Weather History Date:

Tuesday, February 4, 2014

  Actual Average Record
Temperature  
Mean Temperature 24 °F -  
Max Temperature 34 °F 37 °F 54 °F (2006)
Min Temperature 15 °F 20 °F 3 °F (2011)
Degree Days  
Heating Degree Days 40    
Moisture  
Dew Point 20 °F    
Average Humidity 83    
Maximum Humidity 100    
Minimum Humidity 66    
Precipitation  
Precipitation 0.00 in - - ()
Sea Level Pressure  
Sea Level Pressure 30.40 in    
Wind  
Wind Speed 3 mph (NNE)    
Max Wind Speed 8 mph    
Max Gust Speed -    
Visibility 6 miles    
Events Fog    
Averages and records for this station are not official NWS values.
T = Trace of Precipitation, MM = Missing Value Source: NWS Daily Summary

Daily Weather History Graph

Daily Weather History Graph

Search for Another Location

Airport:

Trip Planner

Search our weather history database for the weather conditions in past years. The results will help you decide how hot, cold, wet, or windy it might be!

Date:

Astronomy

Feb. 04, 2014 Rise Set
Actual Time 6:57 AM EST 5:11 PM EST
Civil Twilight 6:28 AM EST 5:40 PM EST
Nautical Twilight 5:56 AM EST 6:13 PM EST
Astronomical Twilight 5:24 AM EST 6:45 PM EST
Moon 9:31 AM EST (2/4) 11:05 PM EST (2/4)
Length of Visible Light 11h 11m
Length of Day
10h 13m
Waxing Crescent, 29% of the Moon is Illuminated
Feb 4
Waxing Crescent
Feb 6
First Quarter
Feb 14
Full
Feb 22
Last Quarter
Mar 1
New

Hourly Weather History & Observations

Time (EST) Temp. Windchill Dew Point Humidity Pressure Visibility Wind Dir Wind Speed Gust Speed Precip Events Conditions
12:53 AM 27.0 °F 20.5 °F 23.0 °F 85% 30.31 in 9.0 mi North 5.8 mph - N/A   Clear
1:53 AM 24.1 °F 15.2 °F 21.0 °F 88% 30.32 in 8.0 mi NNW 8.1 mph - N/A   Clear
2:53 AM 25.0 °F 19.3 °F 19.9 °F 81% 30.35 in 9.0 mi NNW 4.6 mph - N/A   Clear
3:53 AM 21.9 °F 15.7 °F 19.0 °F 89% 30.36 in 8.0 mi NNW 4.6 mph - N/A   Partly Cloudy
4:53 AM 19.9 °F 13.4 °F 17.1 °F 89% 30.36 in 7.0 mi North 4.6 mph - N/A   Clear
5:53 AM 19.0 °F - 17.1 °F 92% 30.40 in 6.0 mi Calm Calm - N/A   Clear
6:35 AM 17.6 °F - 12.2 °F 79% 30.41 in 1.8 mi Calm Calm - N/A   Haze
6:44 AM 15.8 °F - 12.2 °F 86% 30.41 in 3.0 mi Calm Calm - N/A   Clear
6:53 AM 17.1 °F - 12.9 °F 84% 30.42 in 2.5 mi Calm Calm - N/A   Clear
7:01 AM 17.6 °F - 12.2 °F 79% 30.42 in 1.0 mi Calm Calm - N/A   Clear
7:15 AM 17.6 °F - 15.8 °F 93% 30.42 in 10.0 mi Calm Calm - N/A   Clear
7:53 AM 16.0 °F - 15.1 °F 96% 30.42 in 10.0 mi Calm Calm - N/A   Clear
8:53 AM 26.1 °F 21.9 °F 26.1 °F 100% 30.45 in 6.0 mi NNW 3.5 mph - N/A   Clear
9:53 AM 30.0 °F 23.2 °F 25.0 °F 82% 30.48 in 10.0 mi North 6.9 mph - N/A   Clear
10:53 AM 32.0 °F 25.6 °F 25.0 °F 75% 30.48 in 10.0 mi NNE 6.9 mph - N/A   Clear
11:53 AM 32.0 °F 24.8 °F 23.0 °F 69% 30.45 in 10.0 mi NE 8.1 mph - N/A   Clear
12:53 PM 33.1 °F 26.9 °F 23.0 °F 66% 30.42 in 10.0 mi NE 6.9 mph - N/A   Clear
1:53 PM 34.0 °F 31.0 °F 25.0 °F 70% 30.42 in 10.0 mi NE 3.5 mph - N/A   Clear
2:53 PM 33.1 °F 30.0 °F 24.1 °F 70% 30.42 in 10.0 mi NE 3.5 mph - N/A   Partly Cloudy
3:53 PM 33.1 °F - 24.1 °F 70% 30.40 in 10.0 mi Calm Calm - N/A   Clear
4:53 PM 30.9 °F - 21.9 °F 69% 30.40 in 10.0 mi Calm Calm - N/A   Clear
5:53 PM 28.9 °F - 21.9 °F 75% 30.42 in 10.0 mi Calm Calm - N/A   Clear
6:53 PM 27.0 °F - 21.0 °F 78% 30.42 in 2.5 mi Calm Calm - N/A   Haze
7:06 PM 26.6 °F - 21.2 °F 80% 30.41 in 1.2 mi Calm Calm - N/A   Haze
7:29 PM 26.6 °F - 21.2 °F 80% 30.41 in 2.5 mi Calm Calm - N/A   Haze
7:34 PM 21.2 °F - 19.4 °F 93% 30.41 in 0.8 mi Calm Calm - N/A   Clear
7:44 PM 23.0 °F - 19.4 °F 86% 30.41 in 0.2 mi Calm Calm - N/A Fog Light Freezing Fog
7:50 PM 24.8 °F - 21.2 °F 86% 30.39 in 0.5 mi Calm Calm - N/A Fog Light Freezing Fog
7:53 PM 21.0 °F - 19.0 °F 92% 30.40 in 0.2 mi Calm Calm - N/A Fog Light Freezing Fog
8:03 PM 21.2 °F - 17.6 °F 86% 30.39 in 0.5 mi Calm Calm - N/A Fog Light Freezing Fog
8:10 PM 21.2 °F - 17.6 °F 86% 30.39 in 0.2 mi Calm Calm - N/A Fog Light Freezing Fog
8:17 PM 21.2 °F - 19.4 °F 93% 30.39 in 0.8 mi Calm Calm - N/A   Partly Cloudy
8:30 PM 24.8 °F 20.5 °F 19.4 °F 80% 30.39 in 3.0 mi NNE 3.5 mph - N/A   Partly Cloudy
8:51 PM 24.8 °F - 21.2 °F 86% 30.40 in 7.0 mi Calm Calm - N/A   Mostly Cloudy
8:53 PM 25.0 °F - 21.9 °F 88% 30.40 in 7.0 mi Calm Calm - N/A   Mostly Cloudy
9:53 PM 27.0 °F - 24.1 °F 89% 30.38 in 9.0 mi Calm Calm - N/A   Overcast
10:53 PM 30.0 °F 25.2 °F 25.0 °F 82% 30.34 in 10.0 mi ENE 4.6 mph - N/A   Overcast
11:53 PM 30.0 °F 25.2 °F 24.1 °F 79% 30.32 in 10.0 mi ENE 4.6 mph - N/A   Overcast